User: anonymous   Login
Location: Mentone
(34.5413°N, 85.5351°W)
Time: 10:51:00
(UTC-05:00)
Language:

Cosmos 2150 Rocket - Orbit

View from above orbital plane
View from above orbital plane
View from above satellite
View from above satellite

Ground track
Ground track

The orbit data is extracted from the following two-line orbital elements,

1 21419U 91041B   15146.19952163  .00000058  00000-0  30047-4 0  9996
2 21419 074.0406 236.6398 0041522 346.0412 036.7033 14.33720405252551
Epoch (UTC): 26 May 2015 04:47:18
Eccentricity: 0.0041522
inclination: 74.0406°
perigee height: 749 km
apogee height: 809 km
right ascension of ascending node: 236.6398°
argument of perigee: 346.0412°
revolutions per day: 14.33720405
mean anomaly at epoch: 36.7033°
orbit number at epoch: 25255

The dashed part of the orbit path shows where the satellite is in the earth's shadow,  

DLR